Current weather by "City, St" or "zip code"  
 
Advertise Here

Current Conditions: Claremore, Claremore Regional Airport, OK

Fog/Mist


54.0 F

Last Updated on Feb 28 2021, 5:55 am CST
Humidity: 100%
Wind Speed: N 0.0 mph
Barometer 29.80 in
Dewpoint: 53.6 F
Visibility: 2.50 mi
Precip: --
Heat Index: NA
Wind Chill: NA
Current conditions at:

Claremore, Claremore Regional Airport, OK (KGCM)

Lat: 36.29444 Lon: 95.47972

Local Radar Image active severe weather and emergency alerts image image weather storm and storm spotter reports image weather observation monitoring service image
Local
Radar
Active
Alerts
Storm Reports Obs
Monitoring

Sign-up For Email & Text Message Weather Alert Notification Services


Advertise Here

Observation History for Claremore, Claremore Regional Airport, OK


Time Wind
(mph)
Vis
(mi)
Weather Precip (in) Temperature (F) Relative
Humidity
Wind
Chill
(F)
Heat
Index
(F)
Pressure
Air Dwpt altimeter
(in)
sea level
(mb)
Rmks
5:55 am CST N 0.0 2.50 Fog/Mist -- 54.0 53.6 100% NA NA 29.80 M
4:55 am CST N 0.0 2.50 Fog/Mist -- 54.0 53.6 100% NA NA 29.79 M
4:35 am CST N 0.0 3.00 Fog/Mist -- 54.0 53.6 100% NA NA 29.80 M
3:55 am CST W 5.8 5.00 Fog/Mist -- 54.0 53.6 100% 53 NA 29.78 M
2:55 am CST S 6.9 7.00 Overcast -- 54.0 53.6 100% 52 NA 29.75 M
1:55 am CST S 5.8 5.00 Fog/Mist -- 54.0 53.6 100% 53 NA 29.78 M
1:35 am CST S 6.9 5.00 Fog/Mist -- 54.0 53.6 100% 52 NA 29.78 M
12:55 am CST S 10.4 5.00 Fog/Mist -- 54.0 53.6 100% 51 NA 29.79 M
12:35 am CST S 9.2 7.00 Overcast -- 54.0 53.6 100% 51 NA 29.79 M
11:55 pm CST S 11.5 7.00 Overcast -- 54.0 53.6 100% 51 NA 29.79 M
11:35 pm CST S 5.8 7.00 Overcast -- 54.0 53.6 100% 53 NA 29.81 M
10:55 pm CST S 9.2 10.00 Overcast -- 54.0 53.6 100% 51 NA 29.80 M
9:55 pm CST S 8.1 10.00 Overcast -- 54.0 51.8 94% 52 NA 29.80 M
9:35 pm CST S 9.2 7.00 Light Rain -- 54.0 51.8 94% 51 NA 29.80 M
8:55 pm CST S 9.2 10.00 Overcast -- 52.0 51.8 100% 49 NA 29.81 M
7:55 pm CST S 6.9 10.00 Light Rain -- 52.0 50.0 94% 50 NA 29.82 M
7:35 pm CST S 9.2 10.00 Overcast -- 54.0 48.2 82% 51 NA 29.81 M
6:55 pm CST S 6.9 10.00 Overcast -- 54.0 48.2 82% 52 NA 29.82 M
6:35 pm CST S 10.4 10.00 Overcast -- 54.0 46.4 77% 51 NA 29.82 M
5:55 pm CST SE 9.2 10.00 Overcast -- 55.0 42.8 63% 52 NA 29.82 M
4:55 pm CST S 11.5 G 16.1 10.00 Overcast -- 57.0 39.2 51% 54 NA 29.82 M
3:55 pm CST S 9.2 10.00 Overcast -- 55.0 35.6 47% 52 NA 29.83 M
2:55 pm CST SE 9.2 G 18.4 10.00 Overcast -- 59.0 32.0 36% 57 NA 29.84 M
2:35 pm CST S 15.0 G 18.4 10.00 Overcast -- 59.0 32.0 36% 56 NA 29.85 M

Regional Weather Observation


Claremore, Claremore Regional Airport, OK (KGCM)

Fog/Mist
54.0 F

Tulsa - Jones Jr. Airport, OK (KRVS)

Fog/Mist
56.0 F

Mid-America Industrial Airport, OK (KH71)

Fog/Mist
55.0 F

Bartlesville, Bartlesville Municipal Airport, OK (KBVO)

Overcast
55.0 F

Sand Springs, William R Pogue Municipal Airport, OK (KOWP)

NULL
62.0 F

Coffeyville, Coffeyville Municipal Airport, KS (KCFV)

Fog/Mist
55.0 F
Advertise Here

Advertise Here